• In Hungary
  • List of Countries
  • For 7 days
  • Water Temperature
  • Satellite Maps
  • Weather Map
  • News
  • Weather Widgets
  • user-avatar
    Login

    Hourly Weather Rudnya (Proletars'ka Rudnya)

    Today, 21 October, Sunday

    Time Temperature Precipitation Wind Pressure Humidity
    00:00 +7°C° 0 mm 2 mps 752 mmHg 80%
    01:00 +7°C° 0 mm 2 mps 752 mmHg 80%
    02:00 +6°C° 0 mm 2 mps 752 mmHg 81%
    03:00 +6°C° 0 mm 2 mps 752 mmHg 81%
    04:00 +5°C° 0 mm 2 mps 752 mmHg 82%
    05:00 +5°C° 0 mm 2 mps 752 mmHg 83%
    06:00 +5°C° 0 mm 2 mps 752 mmHg 81%
    07:00 +6°C° 0 mm 2 mps 753 mmHg 78%
    08:00 +5°C° 0 mm 3 mps 753 mmHg 73%
    09:00 +8°C° 0 mm 3 mps 753 mmHg 67%
    10:00 +9°C° 0 mm 3 mps 754 mmHg 60%
    11:00 +11°C° 0 mm 3 mps 754 mmHg 53%
    12:00 +11°C° 0 mm 3 mps 754 mmHg 51%
    13:00 +12°C° 0 mm 3 mps 754 mmHg 49%
    14:00 +12°C° 0 mm 3 mps 754 mmHg 46%
    15:00 +11°C° 0 mm 3 mps 754 mmHg 51%
    16:00 +9°C° 0 mm 3 mps 754 mmHg 57%
    17:00 +8°C° 0 mm 2 mps 754 mmHg 62%
    18:00 +7°C° 0 mm 2 mps 754 mmHg 66%
    19:00 +7°C° 0 mm 2 mps 755 mmHg 70%
    20:00 +6°C° 0 mm 2 mps 755 mmHg 73%
    21:00 +5°C° 0 mm 2 mps 755 mmHg 76%
    22:00 +5°C° 0 mm 2 mps 755 mmHg 79%
    23:00 +4°C° 0 mm 2 mps 755 mmHg 81%

    Tomorrow, 22 October, Monday

    Time Temperature Precipitation Wind Pressure Humidity
    00:00 +4°C° 0 mm 2 mps 755 mmHg 83%
    01:00 +4°C° 0 mm 2 mps 755 mmHg 84%
    02:00 +3°C° 0 mm 2 mps 755 mmHg 86%
    03:00 +3°C° 0 mm 2 mps 755 mmHg 87%
    04:00 +3°C° 0 mm 2 mps 755 mmHg 88%
    05:00 +3°C° 0 mm 2 mps 755 mmHg 90%
    06:00 +3°C° 0 mm 2 mps 755 mmHg 87%
    07:00 +3°C° 0 mm 2 mps 755 mmHg 85%
    08:00 +4°C° 0 mm 2 mps 755 mmHg 82%
    09:00 +6°C° 0 mm 2 mps 755 mmHg 74%
    10:00 +8°C° 0 mm 1 mps 755 mmHg 65%
    11:00 +10°C° 0 mm 1 mps 755 mmHg 57%
    12:00 +11°C° 0 mm 1 mps 754 mmHg 53%
    13:00 +11°C° 0 mm 1 mps 754 mmHg 50%
    14:00 +12°C° 0 mm 1 mps 753 mmHg 47%
    15:00 +11°C° 0 mm 1 mps 753 mmHg 51%
    16:00 +9°C° 0 mm 1 mps 752 mmHg 55%
    17:00 +8°C° 0 mm 1 mps 752 mmHg 59%
    18:00 +7°C° 0 mm 1 mps 752 mmHg 61%
    19:00 +7°C° 0 mm 1 mps 751 mmHg 63%
    20:00 +6°C° 0 mm 1 mps 751 mmHg 65%
    21:00 +6°C° 0 mm 1 mps 751 mmHg 66%
    22:00 +6°C° 0 mm 1 mps 751 mmHg 68%
    23:00 +4°C° 0 mm 2 mps 750 mmHg 69%

    Day after tomorrow, 23 October, Tuesday

    Time Temperature Precipitation Wind Pressure Humidity
    00:00 +4°C° 0 mm 2 mps 750 mmHg 72%
    01:00 +4°C° 0 mm 2 mps 749 mmHg 74%
    02:00 +4°C° 0 mm 2 mps 749 mmHg 76%
    03:00 +3°C° 0 mm 2 mps 748 mmHg 80%
    04:00 +2°C° 0 mm 3 mps 748 mmHg 83%
    05:00 +2°C° 0 mm 3 mps 747 mmHg 86%
    06:00 +2°C° 0.1 mm 3 mps 747 mmHg 85%
    07:00 +3°C° 0.1 mm 3 mps 746 mmHg 84%
    08:00 +4°C° 0.1 mm 3 mps 746 mmHg 83%
    09:00 +4°C° 0.2 mm 4 mps 746 mmHg 83%
    10:00 +5°C° 0.2 mm 4 mps 746 mmHg 83%
    11:00 +6°C° 0.2 mm 4 mps 745 mmHg 84%
    12:00 +6°C° 0.1 mm 4 mps 745 mmHg 79%
    13:00 +7°C° 0.1 mm 4 mps 744 mmHg 75%
    14:00 +8°C° 0.1 mm 4 mps 744 mmHg 71%
    15:00 +8°C° 0 mm 3 mps 743 mmHg 71%
    16:00 +7°C° 0 mm 3 mps 743 mmHg 70%
    17:00 +5°C° 0 mm 3 mps 742 mmHg 69%
    18:00 +5°C° 0 mm 3 mps 742 mmHg 69%
    19:00 +5°C° 0 mm 3 mps 741 mmHg 69%
    20:00 +4°C° 0 mm 3 mps 741 mmHg 69%
    21:00 +4°C° 0.1 mm 4 mps 740 mmHg 71%
    22:00 +3°C° 0.1 mm 5 mps 739 mmHg 72%
    23:00 +5°C° 0.1 mm 5 mps 738 mmHg 74%

    24 October, Wednesday

    Time Temperature Precipitation Wind Pressure Humidity
    00:00 +4°C° 0.1 mm 6 mps 736 mmHg 75%
    01:00 +3°C° 0.1 mm 6 mps 735 mmHg 76%
    02:00 +3°C° 0.1 mm 7 mps 734 mmHg 77%
    03:00 +4°C° 0.4 mm 7 mps 732 mmHg 78%
    04:00 +4°C° 0.4 mm 7 mps 731 mmHg 80%
    05:00 +4°C° 0.4 mm 8 mps 729 mmHg 81%
    06:00 +4°C° 0.8 mm 7 mps 728 mmHg 83%
    07:00 +5°C° 0.8 mm 7 mps 727 mmHg 84%
    08:00 +5°C° 0.8 mm 7 mps 726 mmHg 85%
    09:00 +5°C° 0.4 mm 6 mps 726 mmHg 82%
    10:00 +7°C° 0.4 mm 6 mps 725 mmHg 79%
    11:00 +8°C° 0.4 mm 6 mps 725 mmHg 75%
    12:00 +8°C° 0.4 mm 6 mps 725 mmHg 74%
    13:00 +8°C° 0.4 mm 7 mps 725 mmHg 73%
    14:00 +6°C° 0.4 mm 7 mps 725 mmHg 71%
    15:00 +5°C° 0.2 mm 7 mps 726 mmHg 72%
    16:00 +4°C° 0.2 mm 7 mps 726 mmHg 72%
    17:00 +3°C° 0.2 mm 6 mps 727 mmHg 73%
    18:00 +3°C° 0 mm 6 mps 727 mmHg 73%
    19:00 +3°C° 0 mm 5 mps 728 mmHg 73%
    20:00 +3°C° 0 mm 4 mps 728 mmHg 73%
    21:00 +3°C° 0 mm 4 mps 728 mmHg 76%
    22:00 +3°C° 0 mm 4 mps 729 mmHg 78%
    23:00 +1°C° 0 mm 4 mps 729 mmHg 81%

    25 October, Thursday

    Time Temperature Precipitation Wind Pressure Humidity
    00:00 +1°C° 0 mm 4 mps 729 mmHg 82%
    01:00 +3°C° 0 mm 4 mps 729 mmHg 84%
    02:00 +2°C° 0 mm 5 mps 730 mmHg 85%
    03:00 +2°C° 0.1 mm 5 mps 730 mmHg 84%
    04:00 +3°C° 0.1 mm 5 mps 730 mmHg 83%
    05:00 +3°C° 0.1 mm 6 mps 730 mmHg 82%
    06:00 +3°C° 0.1 mm 6 mps 730 mmHg 81%
    07:00 +3°C° 0.1 mm 6 mps 730 mmHg 80%
    08:00 +3°C° 0.1 mm 7 mps 731 mmHg 78%
    09:00 +3°C° 0.2 mm 7 mps 731 mmHg 76%
    10:00 +4°C° 0.2 mm 8 mps 731 mmHg 74%
    11:00 +4°C° 0.2 mm 8 mps 732 mmHg 72%
    12:00 +4°C° 0.1 mm 8 mps 732 mmHg 71%
    13:00 +4°C° 0.1 mm 8 mps 732 mmHg 69%
    14:00 +4°C° 0.1 mm 8 mps 733 mmHg 68%
    15:00 +3°C° 0 mm 7 mps 733 mmHg 69%
    16:00 +3°C° 0 mm 6 mps 733 mmHg 69%
    17:00 +3°C° 0 mm 6 mps 734 mmHg 70%
    18:00 +3°C° 0 mm 5 mps 734 mmHg 71%
    19:00 +2°C° 0 mm 5 mps 734 mmHg 73%
    20:00 +3°C° 0 mm 4 mps 734 mmHg 74%
    21:00 +3°C° 0 mm 4 mps 734 mmHg 76%
    22:00 +3°C° 0 mm 4 mps 735 mmHg 77%
    23:00 +1°C° 0 mm 4 mps 735 mmHg 79%

    26 October, Friday

    Time Temperature Precipitation Wind Pressure Humidity
    00:00 +1°C° 0 mm 4 mps 735 mmHg 81%
    01:00 +1°C° 0 mm 4 mps 735 mmHg 84%
    02:00 0°C° 0 mm 4 mps 736 mmHg 87%
    03:00 0°C° 0 mm 4 mps 736 mmHg 88%
    04:00 0°C° 0 mm 4 mps 737 mmHg 90%
    05:00 0°C° 0 mm 4 mps 737 mmHg 91%
    06:00 0°C° 0 mm 4 mps 738 mmHg 91%
    07:00 +1°C° 0 mm 4 mps 738 mmHg 90%
    08:00 +1°C° 0 mm 4 mps 738 mmHg 90%
    09:00 +3°C° 0 mm 4 mps 739 mmHg 87%
    10:00 +2°C° 0 mm 5 mps 739 mmHg 83%
    11:00 +3°C° 0 mm 5 mps 740 mmHg 80%
    12:00 +3°C° 0 mm 5 mps 740 mmHg 78%
    13:00 +5°C° 0 mm 5 mps 741 mmHg 76%
    14:00 +5°C° 0 mm 4 mps 741 mmHg 75%
    15:00 +5°C° 0 mm 4 mps 741 mmHg 75%
    16:00 +5°C° 0 mm 3 mps 742 mmHg 75%
    17:00 +6°C° 0 mm 2 mps 742 mmHg 75%
    18:00 +5°C° 0 mm 2 mps 743 mmHg 76%
    19:00 +4°C° 0 mm 2 mps 743 mmHg 78%
    20:00 +4°C° 0 mm 2 mps 744 mmHg 79%
    21:00 +3°C° 0 mm 2 mps 744 mmHg 81%
    22:00 +3°C° 0 mm 2 mps 744 mmHg 83%
    23:00 +3°C° 0 mm 2 mps 744 mmHg 84%
    Show more